KF0AIT Weather Reports


time (UTC)temp
C
wind
direction
speed
KPH
gust
KPH
rain 1hr
cm
rain 24hr
cm
rain mn
cm
humidity
%
barometer
mb
20260906192703 22 157 9.7 9.7 0.00 0.00 0.00 78 1014.4
20260906191803 22 157 9.7 9.7 0.00 0.00 0.00 78 1014.4
20260906190903 23 163 9.7 9.7 0.00 0.00 0.00 77 1014.4
20260906190003 25 168 6.4 8.0 0.00 0.00 0.00 77 1013.4
20260906185424 25 173 8.0 8.0 0.00 0.00 0.00 80 1013.4
20260906184503 25 198 0.0 4.8 0.00 0.00 0.00 81 1012.3
20260906183603 26 0 0.0 0.0 0.00 0.00 0.00 79 1012.3
20260906182703 26 0 0.0 0.0 0.00 0.00 0.00 79 1012.3
20260906181803 26 0 0.0 0.0 0.00 0.00 0.00 79 1012.3
20260906180903 26 0 0.0 0.0 0.00 0.00 0.00 79 1012.3
20260906180003 26 0 0.0 0.0 0.00 0.00 0.00 79 1013.4
20260906175403 26 0 0.0 0.0 0.00 0.00 0.00 79 1013.4
20260906174503 26 247 0.0 1.6 0.00 0.00 0.00 79 1012.3
20260906173603 26 0 0.0 0.0 0.00 0.00 0.00 79 1012.3
20260906172703 26 0 0.0 0.0 0.00 0.00 0.00 80 1012.3
20260906171803 26 0 0.0 0.0 0.00 0.00 0.00 84 1012.3
20260906170903 26 0 0.0 0.0 0.00 0.00 0.00 85 1012.3
20260906170003 26 157 0.0 1.6 0.00 0.00 0.00 86 1012.3
20260906165403 26 157 0.0 1.6 0.00 0.00 0.00 87 1012.3
20260906164503 25 157 0.0 3.2 0.00 0.00 0.00 88 1012.3
20260906163603 25 0 0.0 0.0 0.00 0.00 0.00 89 1012.3
20260906162703 25 0 0.0 0.0 0.00 0.00 0.00 89 1012.3
20260906161824 25 0 0.0 0.0 0.00 0.00 0.00 89 1012.3
20260906160903 25 0 0.0 0.0 0.00 0.00 0.00 90 1012.3
20260906160003 25 190 0.0 1.6 0.00 0.00 0.00 90 1012.3
20260906155403 25 202 0.0 1.6 0.00 0.00 0.00 90 1012.3
20260906154503 25 157 0.0 1.6 0.00 0.00 0.00 90 1012.3
20260906153603 25 157 0.0 1.6 0.00 0.00 0.00 91 1012.3
20260906152724 24 0 0.0 0.0 0.00 0.00 0.00 91 1012.3
20260906151803 24 0 0.0 0.0 0.00 0.00 0.00 91 1012.3
20260906150903 24 0 0.0 0.0 0.00 0.00 0.00 91 1012.3
20260906150024 24 0 0.0 0.0 0.00 0.00 0.00 91 1012.3
20260906145424 24 0 0.0 0.0 0.00 0.00 0.00 91 1012.3
20260906144524 24 157 0.0 1.6 0.00 0.00 0.00 92 1012.3
20260906143603 24 157 1.6 1.6 0.00 0.00 0.00 92 1012.3
20260906142724 24 0 0.0 0.0 0.00 0.00 0.00 92 1012.3
20260906141824 24 157 0.0 1.6 0.00 0.00 0.00 92 1012.3
20260906140903 24 157 0.0 1.6 0.00 0.00 0.00 92 1012.3
20260906140003 23 135 0.0 3.2 0.00 0.00 0.00 92 1012.3
20260906135403 23 135 0.0 3.2 0.00 0.00 0.00 92 1012.3
20260906134503 23 0 0.0 0.0 0.00 0.00 0.00 93 1012.3
20260906133603 23 157 0.0 3.2 0.00 0.00 0.00 93 1012.3
20260906132703 23 157 0.0 1.6 0.00 0.00 0.00 93 1012.3
20260906131803 23 0 0.0 0.0 0.00 0.00 0.00 93 1012.3
20260906130903 23 157 1.6 1.6 0.00 0.00 0.00 93 1012.3
20260906130024 23 157 0.0 1.6 0.00 0.00 0.00 93 1012.3
20260906125403 23 0 0.0 0.0 0.00 0.00 0.00 93 1012.3
20260906124503 23 0 0.0 0.0 0.00 0.00 0.00 93 1012.3
20260906123603 23 0 0.0 0.0 0.00 0.00 0.00 93 1012.3
20260906122724 23 0 0.0 0.0 0.00 0.00 0.00 93 1012.3
20260906121803 23 0 0.0 0.0 0.00 0.00 0.00 93 1012.3
20260906120903 23 0 0.0 0.0 0.00 0.00 0.00 92 1011.3
20260906120003 23 0 0.0 0.0 0.00 0.00 0.00 92 1011.3
20260906115403 23 0 0.0 0.0 0.00 0.00 0.00 92 1011.3
20260906114503 23 0 0.0 0.0 0.00 0.00 0.00 92 1011.3
20260906113603 23 157 0.0 1.6 0.00 0.00 0.00 92 1011.3
20260906112703 23 157 1.6 1.6 0.00 0.00 0.00 92 1011.3
20260906111803 23 0 0.0 0.0 0.00 0.00 0.00 91 1011.3
20260906110903 23 0 0.0 0.0 0.00 0.00 0.00 91 1011.3
20260906110003 23 0 0.0 0.0 0.00 0.00 0.00 91 1011.3
20260906105403 23 157 0.0 1.6 0.00 0.00 0.00 91 1011.3
20260906104503 23 157 1.6 1.6 0.00 0.00 0.00 91 1011.3
20260906103624 23 0 0.0 0.0 0.00 0.00 0.00 91 1011.3
20260906102703 23 0 0.0 0.0 0.00 0.00 0.00 90 1011.3
20260906101803 23 0 0.0 0.0 0.00 0.00 0.00 90 1011.3
20260906100903 23 0 0.0 0.0 0.00 0.00 0.00 90 1011.3
20260906100003 23 0 0.0 0.0 0.00 0.00 0.00 90 1011.3
20260906095403 23 0 0.0 0.0 0.00 0.00 0.00 90 1011.3
20260906094503 23 0 0.0 0.0 0.00 0.00 0.00 90 1011.3
20260906093603 23 0 0.0 0.0 0.00 0.00 0.00 90 1011.3
20260906092703 23 0 0.0 0.0 0.00 0.00 0.00 90 1011.3
20260906091824 23 157 0.0 1.6 0.00 0.00 0.00 90 1011.3
20260906090903 23 0 0.0 0.0 0.00 0.00 0.00 90 1011.3
20260906090024 23 157 0.0 1.6 0.00 0.00 0.00 89 1011.3
20260906085403 23 0 0.0 0.0 0.00 0.00 0.00 89 1011.3
20260906084503 23 0 0.0 0.0 0.00 0.00 0.00 89 1011.3
20260906083603 23 0 0.0 0.0 0.00 0.00 0.00 89 1011.3
20260906082703 22 90 0.0 3.2 0.00 0.00 0.00 88 1011.3
20260906081824 22 0 0.0 0.0 0.00 0.00 0.00 88 1011.3
20260906080903 22 157 0.0 1.6 0.00 0.00 0.00 88 1010.2
20260906080024 22 157 1.6 1.6 0.00 0.00 0.00 87 1010.2
20260906075403 22 157 0.0 1.6 0.00 0.00 0.00 87 1010.2
20260906074503 22 0 0.0 0.0 0.00 0.00 0.00 86 1011.3
20260906073603 22 0 0.0 0.0 0.00 0.00 0.00 85 1011.3
20260906072703 22 0 0.0 0.0 0.00 0.00 0.00 85 1011.3
20260906071803 22 0 0.0 0.0 0.00 0.00 0.00 84 1011.3
20260906070903 22 0 0.0 0.0 0.00 0.00 0.00 84 1011.3
20260906070003 22 0 0.0 0.0 0.00 0.00 0.00 83 1011.3
20260906065403 22 0 0.0 0.0 0.00 0.00 0.00 83 1011.3
20260906064503 22 0 0.0 0.0 0.00 0.00 0.00 82 1011.3
20260906063624 22 135 0.0 1.6 0.00 0.00 0.00 81 1011.3
20260906062703 22 135 1.6 1.6 0.00 0.00 0.00 80 1011.3
20260906061803 22 0 0.0 0.0 0.00 0.00 0.00 80 1011.3
20260906060903 23 0 0.0 0.0 0.00 0.00 0.00 79 1011.3
20260906060003 23 0 0.0 0.0 0.00 0.00 0.00 79 1011.3
20260906055424 23 0 0.0 0.0 0.00 0.00 0.00 78 1011.3
20260906054524 23 0 0.0 0.0 0.00 0.00 0.00 78 1011.3
20260906053603 23 0 0.0 0.0 0.00 0.00 0.00 78 1011.3
20260906052703 23 0 0.0 0.0 0.00 0.00 0.00 77 1011.3
20260906051803 23 0 0.0 0.0 0.00 0.00 0.00 77 1011.3
20260906050903 23 0 0.0 0.0 0.00 0.00 0.00 76 1011.3
20260906050003 23 0 0.0 0.0 0.00 0.00 0.00 75 1011.3
20260906045403 23 0 0.0 0.0 0.00 0.00 0.00 75 1011.3
20260906044503 23 0 0.0 0.0 0.00 0.00 0.00 75 1011.3
20260906043603 23 0 0.0 0.0 0.00 0.00 0.00 74 1011.3
20260906042724 23 0 0.0 0.0 0.00 0.00 0.00 73 1011.3
20260906041824 23 0 0.0 0.0 0.00 0.00 0.00 73 1011.3
20260906040924 23 135 0.0 1.6 0.00 0.00 0.00 72 1011.3
20260906040003 23 0 0.0 0.0 0.00 0.00 0.00 71 1011.3
20260906035424 23 0 0.0 0.0 0.00 0.00 0.00 70 1011.3
20260906034503 24 0 0.0 0.0 0.00 0.00 0.00 69 1011.3
20260906033624 24 0 0.0 0.0 0.00 0.00 0.00 69 1011.3
20260906032703 24 0 0.0 0.0 0.00 0.00 0.00 68 1011.3
20260906031803 25 0 0.0 0.0 0.00 0.00 0.00 67 1011.3
20260906030903 25 0 0.0 0.0 0.00 0.00 0.00 67 1011.3
20260906030024 25 0 0.0 0.0 0.00 0.00 0.00 66 1011.3
20260906025424 25 0 0.0 0.0 0.00 0.00 0.00 65 1011.3
20260906024503 25 0 0.0 0.0 0.00 0.00 0.00 64 1011.3
20260906023603 25 0 0.0 0.0 0.00 0.00 0.00 63 1011.3
20260906022703 25 135 0.0 3.2 0.00 0.00 0.00 62 1011.3
20260906021803 25 0 0.0 0.0 0.00 0.00 0.00 62 1011.3
20260906020903 25 0 0.0 0.0 0.00 0.00 0.00 61 1010.2
20260906020024 26 0 0.0 0.0 0.00 0.00 0.00 60 1010.2
20260906015403 26 0 0.0 0.0 0.00 0.00 0.00 60 1010.2
20260906014503 26 0 0.0 0.0 0.00 0.00 0.00 59 1010.2
20260906013603 26 0 0.0 0.0 0.00 0.00 0.00 58 1010.2
20260906012724 26 0 0.0 0.0 0.00 0.00 0.00 57 1010.2
20260906011824 26 0 0.0 0.0 0.00 0.00 0.00 56 1010.2
20260906010924 27 0 0.0 0.0 0.00 0.00 0.00 55 1010.2
20260906010003 27 0 0.0 0.0 0.00 0.00 0.00 54 1010.2
20260906005403 27 135 0.0 1.6 0.00 0.00 0.00 53 1010.2
20260906004503 27 135 0.0 1.6 0.00 0.00 0.00 52 1010.2
20260906003603 27 0 0.0 0.0 0.00 0.00 0.00 51 1010.2
20260906002703 28 135 0.0 3.2 0.00 0.00 0.00 50 1009.2
20260906001803 28 135 0.0 3.2 0.00 0.00 0.00 49 1009.2
20260906000924 28 135 0.0 1.6 0.00 0.00 0.00 49 1009.2
20260906000003 28 102 0.0 3.2 0.00 0.00 0.00 49 1009.2
20260905235403 29 100 0.0 3.2 0.00 0.00 0.00 48 1009.2
20260905234503 29 135 0.0 1.6 0.00 0.00 0.00 47 1009.2
20260905233603 29 0 0.0 0.0 0.00 0.00 0.00 47 1009.2
20260905232703 29 157 0.0 1.6 0.00 0.00 0.00 47 1009.2
20260905231803 30 166 0.0 3.2 0.00 0.00 0.00 47 1009.2
20260905230903 30 0 0.0 0.0 0.00 0.00 0.00 47 1009.2
20260905230003 30 180 0.0 4.8 0.00 0.00 0.00 47 1009.2
20260905225403 30 180 0.0 4.8 0.00 0.00 0.00 47 1009.2
20260905224524 30 166 0.0 1.6 0.00 0.00 0.00 47 1009.2
20260905223603 30 166 1.6 1.6 0.00 0.00 0.00 47 1009.2
20260905222724 30 144 0.0 3.2 0.00 0.00 0.00 48 1009.2
20260905221803 30 157 0.0 3.2 0.00 0.00 0.00 48 1009.2
20260905220924 30 133 0.0 3.2 0.00 0.00 0.00 48 1009.2
20260905220024 30 157 0.0 1.6 0.00 0.00 0.00 47 1009.2
20260905215403 30 157 1.6 1.6 0.00 0.00 0.00 47 1009.2
20260905214503 30 157 0.0 1.6 0.00 0.00 0.00 47 1009.2
20260905213603 30 147 0.0 4.8 0.00 0.00 0.00 48 1009.2
20260905212703 30 167 4.8 4.8 0.00 0.00 0.00 47 1009.2
20260905211803 30 174 1.6 1.6 0.00 0.00 0.00 48 1009.2
20260905210903 30 135 0.0 4.8 0.00 0.00 0.00 48 1009.2
20260905210003 29 130 4.8 4.8 0.00 0.00 0.00 48 1009.2
20260905205403 29 121 1.6 1.6 0.00 0.00 0.00 48 1009.2
20260905204524 29 180 0.0 1.6 0.00 0.00 0.00 48 1009.2
20260905203603 29 157 0.0 1.6 0.00 0.00 0.00 48 1009.2
20260905202703 29 176 1.6 3.2 0.00 0.00 0.00 50 1009.2
20260905201803 29 337 0.0 3.2 0.00 0.00 0.00 52 1009.2
20260905200903 28 337 0.0 1.6 0.00 0.00 0.00 53 1009.2
20260905200024 28 0 0.0 0.0 0.00 0.00 0.00 54 1009.2
20260905195424 28 0 0.0 0.0 0.00 0.00 0.00 53 1009.2
20260905194524 28 157 0.0 1.6 0.00 0.00 0.00 53 1009.2
20260905193603 28 163 0.0 1.6 0.00 0.00 0.00 53 1009.2